SCP
0 0 0 0 0 0 0 0 0 0 0 0 0 0 0 0 0 0 0 0 0 0 0 0 0 0 0 0 0 0 0 0 0 0 0 -0 -0 0 0 0 0 0 0
0 0 0 0 0 0 0 0 0 0 0 0 0 0 0 0 0 0 0 0 0 0 0 0 0 0 0 0 -0 -0 0 0 0 -0 -0 -0 -0 0 0 0 0 0 0
0 0 0 0 0 0 0 0 0 0 0 0 0 0 0 0 0 0 0 0 0 0 0 0 0 0 0 0 0 0 0 0 0 -0 -0 -0 0 0 0 0 0 0 0
0 0 0 0 0 0 0 0 0 0 0 0 0 0 0 0 0 0 0 0 0 0 0 0 0 0 -0 -0 -0 -0 0 0 0 -0 0 0 0 0 0 0 0 0 0
0 0 0 0 0 0 0 0 0 0 0 0 0 0 0 0 0 0 0 0 0 0 0 0 0 -0 -0 -0 -0 -0 -0 -0 -0 -0 0 0 0 0 0 0 0 0 0
0 0 0 0 0 0 0 0 0 0 0 0 0 0 0 0 0 0 0 0 0 0 0 0 -0 -0 -0 -0 -0 -0 -0 -0 -0 -0 0 0 0 0 0 0 0 0 0
0 0 0 0 0 0 0 0 0 0 0 0 0 0 0 0 0 0 0 0 0 0 0 0 0 0 -0 -0 -0 -0 -0 -0 -0 -0 -0 -0 0 0 -0 0 0 0 0
0 0 0 0 0 0 0 0 0 0 0 0 0 0 0 0 0 0 0 0 0 0 0 0 0 0 0 -0 -0 -0 -0 -0 0 0 -0 -0 -0 0 0 -0 0 0 0
0 0 0 0 0 0 0 0 0 0 0 0 0 0 0 0 0 0 0 0 0 0 -0 0 0 0 -0 -0 -0 -0 -0 0 0 -0 -0 -0 -0 -0 -0 0 0 0 0
0 0 0 0 0 0 0 0 0 0 0 0 0 0 0 0 0 0 0 0 0 0 -0 0 -0 0 -0 -0 0 -0 0 0 0 -0 0 -0 -0 -0 -0 0 0 0 0
0 0 0 0 0 0 0 0 0 0 0 0 0 0 0 0 0 0 0 0 0 0 0 -0 0 -0 -0 -0 -0 -0 -0 -0 0 -0 -0 -0 -0 -0 -0 0 0 0 0
0 0 0 0 0 0 0 0 0 0 0 0 0 0 0 0 0 0 0 -0 0 -0 -0 -0 0 -0 -0 -0 -0 -0 -0 -0 0 -0 -0 -0 -0 0 0 0 0 0 0
0 0 0 0 0 0 0 0 0 0 0 0 0 0 0 0 0 0 0 0 -0 -0 0 -0 -0 0 -0 -0 -0 -0 -0 -0 -0 -0 -0 -0 0 0 0 0 0 0 0
0 0 0 0 0 0 0 0 0 0 0 0 0 0 0 0 0 0 0 0 0 -0 -0 -0 0 0 0 -0 -0 -0 -0 -0 -0 -0 -0 0 0 0 0 0 0 0 0
0 0 0 0 0 0 0 0 0 0 0 0 0 0 0 0 0 0 0 0 -0 -0 0 0 0 0 0 0 0 0 -0 -0 -0 -0 0 0 -0 0 0 0 0 0 0
0 0 0 0 0 0 0 0 0 0 0 0 0 0 0 0 0 0 0 -0 -0 -0 0 0 0 0 0 0 0 0 0 -0 -0 -0 0 0 0 0 0 0 0 0 0
0 0 0 0 0 0 0 0 0 0 0 0 0 0 0 0 0 0 0 -0 0 -0 0 0 0 0 0 0 0 0 0 0 0 0 0 0 0 0 0 0 0 0 0
0 0 0 0 0 0 0 0 0 0 0 0 0 0 0 0 0 0 0 0 0 0 0 -0 0 0 0 0 0 0 0 0 0 0 0 0 0 0 0 0 0 0 0
0 0 0 0 0 0 0 0 0 0 0 0 0 0 0 0 0 0 0 0 0 0 0 0 -0 0 0 0 0 0 0 0 0 0 0 0 0 0 0 0 0 0 0
0 0 0 0 0 0 0 0 0 0 0 0 0 0 0 0 0 0 0 0 0 0 0 0 -0 -0 0 0 0 0 0 0 0 0 0 0 0 0 0 0 0 0 0
0 0 0 0 0 0 0 0 0 0 0 0 0 0 0 0 0 0 0 0 0 0 0 0 0 0 -0 0 0 0 0 0 0 0 0 0 0 0 0 0 0 0 0
0 0 0 0 0 0 0 0 0 0 0 0 0 0 0 0 0 0 0 0 0 0 0 0 0 0 0 0 0 0 -0 -0 -0 -0 -0 -0 -0 -0 -0 0 0 0 0
0 0 0 0 0 0 0 0 0 0 0 0 0 0 0 0 0 0 0 0 0 0 0 0 0 0 0 0 0 0 -0 0 0 0 0 -0 -0 -0 -0 -0 -0 -0 -0
0 0 0 0 0 0 0 0 0 0 0 0 0 0 0 0 0 0 0 0 0 0 0 0 0 0 0 0 0 0 0 0 -0 -0 -0 -0 -0 -0 -0 -0 -0 -0 -0
0 0 0 0 0 0 0 0 0 0 0 0 0 0 0 0 0 0 0 0 0 0 0 0 0 0 0 0 0 0 0 0 0 0 0 -0 -0 -0 -0 -0 -0 -0 -0
0 0 0 0 0 0 0 0 0 0 0 0 0 0 0 0 0 0 0 0 0 0 0 0 0 0 0 0 0 0 0 0 0 0 0 0 0 0 -0 -0 -0 -0 -0
Wind_Speed_500mb
56 60 63 65 65 65 68 68 65 65 65 67 68 68 67 64 57 63 54 54 53 59 61 58 58 60 62 59 55 54 54 60 70 72 61 78 75 73 72 69 58 53 55
59 62 63 64 64 67 68 63 59 60 62 64 66 67 66 61 57 51 45 50 57 59 61 61 58 56 64 66 67 68 67 67 67 72 80 79 79 71 70 71 53 47 52
61 62 63 63 65 67 65 59 56 58 60 61 64 65 65 61 56 48 47 56 68 68 69 72 72 62 59 58 57 62 62 64 65 70 85 82 75 68 70 59 55 45 39
60 62 63 64 65 66 62 56 55 57 59 61 62 64 63 59 51 43 52 61 67 69 70 68 70 67 65 62 59 58 61 66 66 66 72 74 69 64 59 54 35 36 29
59 60 61 63 64 65 60 55 54 55 58 59 61 62 61 55 43 55 56 63 62 70 79 80 81 77 70 65 66 67 65 70 73 70 68 71 69 63 53 20 14 11 7
58 59 61 63 64 64 58 54 54 56 58 61 61 60 61 55 52 50 54 53 68 71 79 86 77 75 72 62 57 58 64 73 78 72 72 68 74 65 40 24 7 3 1
57 59 64 66 66 65 58 53 55 60 62 64 65 61 60 57 50 53 49 60 59 68 73 72 70 70 64 60 71 79 72 71 72 77 81 80 68 56 11 9 7 4 11
60 63 65 67 66 63 58 53 55 61 65 68 69 67 63 57 51 52 53 54 58 67 68 70 72 72 68 67 78 85 72 18 2 13 32 54 41 13 14 10 10 7 15
61 64 66 67 67 61 58 56 56 60 64 65 68 67 63 57 51 50 51 59 60 57 56 73 73 72 65 67 79 73 35 25 30 22 25 28 19 20 10 10 14 12 14
63 66 65 64 63 61 59 60 60 58 62 61 61 61 63 61 58 51 53 52 60 58 61 69 72 64 64 68 72 55 14 23 21 24 32 31 30 27 24 17 15 9 14
61 63 65 62 61 60 62 64 62 61 60 61 59 63 66 64 65 51 47 51 51 60 62 71 71 63 60 65 56 21 6 15 18 19 26 28 40 26 23 17 13 13 18
62 62 62 61 59 62 62 63 63 61 61 63 68 70 69 65 57 48 46 48 49 50 55 63 63 57 55 56 35 17 20 17 21 25 27 23 24 23 20 17 17 15 19
64 65 65 62 61 60 62 63 66 61 61 64 66 61 65 60 59 52 56 47 48 46 53 52 56 44 39 40 28 39 27 21 22 29 33 30 27 24 20 16 12 10 9
66 66 66 67 65 61 60 63 62 61 60 65 62 62 64 61 57 63 58 56 45 51 53 58 41 26 26 32 38 37 34 34 34 29 27 24 18 15 14 13 11 10 8
66 69 70 68 66 66 61 62 61 55 50 57 59 57 61 57 57 54 52 54 43 40 53 38 26 22 25 31 39 47 44 38 35 28 24 22 21 19 19 16 13 13 15
68 69 68 69 68 68 71 70 54 52 46 43 41 44 46 43 48 49 51 44 40 34 37 32 29 27 26 27 29 32 32 32 29 23 20 19 17 17 17 15 13 12 12
66 67 67 66 68 70 71 72 77 61 54 51 46 42 40 43 48 47 46 41 35 30 26 26 25 23 21 19 18 19 21 21 18 14 13 12 12 12 13 13 12 12 11
61 64 67 65 67 68 67 65 66 68 71 65 52 50 43 45 46 48 41 41 30 21 23 23 21 19 16 14 11 9 8 7 7 5 5 6 8 9 9 9 10 10 10
62 65 67 66 65 65 65 63 62 63 64 64 62 55 50 53 51 48 41 39 37 32 26 21 18 17 13 9 7 7 6 5 4 5 6 5 5 6 8 7 7 7 7
59 63 68 67 68 68 64 62 62 63 65 67 66 65 60 67 59 53 49 45 39 32 27 23 18 15 14 14 11 10 9 8 9 9 8 8 8 9 9 9 10 10 11
61 66 68 67 67 66 62 60 60 62 65 66 64 60 50 52 54 54 53 47 42 36 30 25 19 16 17 17 18 18 17 16 16 16 15 16 15 14 16 16 17 18 17
60 64 67 68 66 63 60 58 60 63 64 64 63 59 56 56 56 56 53 48 42 36 31 28 22 17 18 21 24 25 25 23 23 26 25 24 23 23 24 23 23 23 25
55 62 66 67 64 62 60 59 61 63 63 62 63 64 65 63 60 56 53 50 46 39 33 29 25 19 19 22 26 29 31 28 29 34 33 32 32 30 30 30 29 28 28
52 59 65 67 65 65 63 62 62 63 63 63 64 66 68 67 65 62 59 55 49 42 36 32 28 24 20 19 23 27 30 30 33 36 39 39 37 35 36 36 33 33 33
51 55 61 66 66 66 65 64 63 65 64 64 65 67 70 72 71 70 69 65 58 50 42 36 32 28 23 21 19 20 24 28 30 32 35 37 37 35 34 35 33 33 32
48 51 58 64 66 64 65 65 64 64 65 66 67 69 71 74 73 71 72 67 61 54 49 45 38 32 27 22 18 18 17 18 20 23 26 29 30 28 28 28 27 27 25
Wind_Direction_500mb
336 336 336 335 334 334 334 335 334 335 336 337 336 334 334 333 326 320 326 325 322 323 321 316 309 305 303 300 295 292 289 288 288 294 287 291 294 297 299 304 299 292 285
336 336 335 334 336 336 336 335 337 336 338 339 337 337 338 333 333 330 332 335 324 325 325 322 315 307 301 298 296 293 293 288 287 291 294 292 292 292 299 303 293 288 282
336 334 335 336 337 335 336 334 335 336 338 340 339 339 338 333 332 332 334 323 328 329 326 317 314 312 303 298 294 290 289 288 284 283 286 286 291 294 304 303 286 281 269
335 335 336 337 335 334 334 331 333 334 337 341 340 340 337 336 330 329 324 328 327 324 323 318 313 309 304 302 296 292 292 289 286 279 281 287 293 300 304 287 278 261 242
335 336 336 334 334 332 332 329 330 332 337 340 342 338 340 337 329 330 326 324 323 328 329 327 326 319 313 295 285 284 283 282 281 275 275 281 287 293 286 249 228 258 254
334 335 335 334 333 331 331 327 328 331 335 338 342 339 337 340 326 327 324 319 325 326 332 335 340 336 335 332 318 300 281 273 271 267 269 269 276 284 281 232 200 196 64
335 337 336 334 333 332 330 328 329 331 334 337 338 339 338 340 327 325 323 321 320 334 332 341 334 334 332 337 334 327 313 292 279 265 266 264 268 279 205 213 210 165 123
338 338 337 335 334 333 331 331 331 331 335 336 336 342 341 341 326 327 326 320 326 331 335 336 337 332 331 337 329 327 328 24 8 251 289 252 252 166 163 164 168 164 142
337 339 340 337 336 335 333 333 335 334 334 334 338 340 342 344 333 330 328 326 328 325 333 331 331 331 334 329 331 330 356 61 65 93 91 97 136 151 136 158 148 153 143
342 341 340 338 337 337 335 335 338 336 334 338 339 342 346 348 346 333 330 327 328 329 331 327 328 332 331 332 333 337 43 56 64 98 110 107 114 116 112 108 105 113 142
342 342 341 341 339 340 339 339 337 338 339 343 344 348 350 349 342 336 333 330 328 330 333 330 330 334 335 335 336 337 87 76 86 98 112 101 132 117 107 103 102 98 64
344 344 342 343 343 344 342 338 341 343 344 346 347 347 345 339 340 338 338 333 331 329 331 331 328 336 337 342 353 4 111 99 109 104 105 102 101 99 96 98 96 108 79
349 346 346 348 349 347 345 345 345 346 347 345 341 334 332 336 344 352 351 338 336 333 330 326 332 339 356 4 60 98 99 107 122 114 103 97 95 95 98 102 93 78 71
351 350 351 351 349 350 352 352 347 349 346 342 333 333 334 335 348 350 343 340 348 340 328 328 336 348 23 33 76 102 110 117 116 109 104 97 91 94 99 94 96 98 90
352 352 354 352 351 352 357 354 350 347 340 332 332 333 332 336 342 337 340 341 341 341 318 332 353 16 38 51 55 83 103 109 106 103 97 88 79 70 74 76 77 81 92
354 352 352 352 353 356 353 352 2 355 344 338 336 334 334 333 336 340 339 339 341 337 340 351 6 17 26 36 47 57 77 88 92 92 87 77 64 53 48 43 40 46 56
355 353 352 353 356 356 356 353 351 4 7 5 354 345 341 336 340 342 342 335 342 337 342 358 359 5 13 20 29 39 48 59 72 76 65 54 43 32 29 34 36 34 42
358 355 356 356 357 357 355 354 356 353 355 4 9 3 356 348 345 342 343 338 345 350 347 347 350 349 350 355 2 11 27 36 40 39 36 15 0 4 15 17 15 19 22
0 358 358 0 0 359 358 358 357 356 357 357 359 2 358 2 353 348 354 355 352 350 343 338 332 327 324 323 322 324 327 318 316 327 329 323 317 316 321 332 331 327 323
3 2 2 1 2 2 0 359 358 358 357 357 358 356 359 354 349 359 1 358 356 351 343 333 323 309 298 292 279 270 266 269 270 268 267 270 273 276 280 283 286 288 290
3 5 3 5 5 3 1 1 359 359 359 359 0 3 349 344 355 357 356 356 353 351 345 338 325 303 283 272 267 262 256 253 257 259 259 263 266 269 274 278 284 287 283
5 4 5 6 5 4 5 3 4 4 3 2 4 7 5 1 358 356 356 356 354 350 345 339 333 310 284 268 263 260 256 252 254 258 258 260 262 266 271 274 277 281 285
4 5 7 8 6 6 8 7 8 7 5 6 5 5 4 3 2 2 1 0 359 356 350 345 338 326 295 279 268 264 260 256 255 259 262 264 266 269 271 272 273 274 274
6 7 8 8 8 8 9 8 9 9 8 8 8 8 8 8 8 8 7 6 5 2 356 351 346 337 322 300 283 274 269 263 257 258 261 264 265 266 268 271 273 275 275
8 8 10 9 8 8 8 8 10 10 10 11 10 10 10 11 11 11 10 9 9 8 5 356 350 347 336 320 307 290 277 271 266 261 261 265 266 265 265 268 269 269 268
7 8 11 10 10 9 8 8 11 11 11 12 12 12 12 13 13 13 12 10 9 7 4 0 355 344 338 336 323 308 297 286 279 273 267 264 266 267 266 268 269 270 269
Wind_Speed_850mb
56 60 63 65 65 65 68 68 65 65 65 67 68 68 67 64 57 63 54 54 53 59 61 58 58 60 62 59 55 54 54 60 70 72 61 78 75 73 72 69 58 53 55
59 62 63 64 64 67 68 63 59 60 62 64 66 67 66 61 57 51 45 50 57 59 61 61 58 56 64 66 67 68 67 67 67 72 80 79 79 71 70 71 53 47 52
61 62 63 63 65 67 65 59 56 58 60 61 64 65 65 61 56 48 47 56 68 68 69 72 72 62 59 58 57 62 62 64 65 70 85 82 75 68 70 59 55 45 39
60 62 63 64 65 66 62 56 55 57 59 61 62 64 63 59 51 43 52 61 67 69 70 68 70 67 65 62 59 58 61 66 66 66 72 74 69 64 59 54 35 36 29
59 60 61 63 64 65 60 55 54 55 58 59 61 62 61 55 43 55 56 63 62 70 79 80 81 77 70 65 66 67 65 70 73 70 68 71 69 63 53 20 14 11 7
58 59 61 63 64 64 58 54 54 56 58 61 61 60 61 55 52 50 54 53 68 71 79 86 77 75 72 62 57 58 64 73 78 72 72 68 74 65 40 24 7 3 1
57 59 64 66 66 65 58 53 55 60 62 64 65 61 60 57 50 53 49 60 59 68 73 72 70 70 64 60 71 79 72 71 72 77 81 80 68 56 11 9 7 4 11
60 63 65 67 66 63 58 53 55 61 65 68 69 67 63 57 51 52 53 54 58 67 68 70 72 72 68 67 78 85 72 18 2 13 32 54 41 13 14 10 10 7 15
61 64 66 67 67 61 58 56 56 60 64 65 68 67 63 57 51 50 51 59 60 57 56 73 73 72 65 67 79 73 35 25 30 22 25 28 19 20 10 10 14 12 14
63 66 65 64 63 61 59 60 60 58 62 61 61 61 63 61 58 51 53 52 60 58 61 69 72 64 64 68 72 55 14 23 21 24 32 31 30 27 24 17 15 9 14
61 63 65 62 61 60 62 64 62 61 60 61 59 63 66 64 65 51 47 51 51 60 62 71 71 63 60 65 56 21 6 15 18 19 26 28 40 26 23 17 13 13 18
62 62 62 61 59 62 62 63 63 61 61 63 68 70 69 65 57 48 46 48 49 50 55 63 63 57 55 56 35 17 20 17 21 25 27 23 24 23 20 17 17 15 19
64 65 65 62 61 60 62 63 66 61 61 64 66 61 65 60 59 52 56 47 48 46 53 52 56 44 39 40 28 39 27 21 22 29 33 30 27 24 20 16 12 10 9
66 66 66 67 65 61 60 63 62 61 60 65 62 62 64 61 57 63 58 56 45 51 53 58 41 26 26 32 38 37 34 34 34 29 27 24 18 15 14 13 11 10 8
66 69 70 68 66 66 61 62 61 55 50 57 59 57 61 57 57 54 52 54 43 40 53 38 26 22 25 31 39 47 44 38 35 28 24 22 21 19 19 16 13 13 15
68 69 68 69 68 68 71 70 54 52 46 43 41 44 46 43 48 49 51 44 40 34 37 32 29 27 26 27 29 32 32 32 29 23 20 19 17 17 17 15 13 12 12
66 67 67 66 68 70 71 72 77 61 54 51 46 42 40 43 48 47 46 41 35 30 26 26 25 23 21 19 18 19 21 21 18 14 13 12 12 12 13 13 12 12 11
61 64 67 65 67 68 67 65 66 68 71 65 52 50 43 45 46 48 41 41 30 21 23 23 21 19 16 14 11 9 8 7 7 5 5 6 8 9 9 9 10 10 10
62 65 67 66 65 65 65 63 62 63 64 64 62 55 50 53 51 48 41 39 37 32 26 21 18 17 13 9 7 7 6 5 4 5 6 5 5 6 8 7 7 7 7
59 63 68 67 68 68 64 62 62 63 65 67 66 65 60 67 59 53 49 45 39 32 27 23 18 15 14 14 11 10 9 8 9 9 8 8 8 9 9 9 10 10 11
61 66 68 67 67 66 62 60 60 62 65 66 64 60 50 52 54 54 53 47 42 36 30 25 19 16 17 17 18 18 17 16 16 16 15 16 15 14 16 16 17 18 17
60 64 67 68 66 63 60 58 60 63 64 64 63 59 56 56 56 56 53 48 42 36 31 28 22 17 18 21 24 25 25 23 23 26 25 24 23 23 24 23 23 23 25
55 62 66 67 64 62 60 59 61 63 63 62 63 64 65 63 60 56 53 50 46 39 33 29 25 19 19 22 26 29 31 28 29 34 33 32 32 30 30 30 29 28 28
52 59 65 67 65 65 63 62 62 63 63 63 64 66 68 67 65 62 59 55 49 42 36 32 28 24 20 19 23 27 30 30 33 36 39 39 37 35 36 36 33 33 33
51 55 61 66 66 66 65 64 63 65 64 64 65 67 70 72 71 70 69 65 58 50 42 36 32 28 23 21 19 20 24 28 30 32 35 37 37 35 34 35 33 33 32
48 51 58 64 66 64 65 65 64 64 65 66 67 69 71 74 73 71 72 67 61 54 49 45 38 32 27 22 18 18 17 18 20 23 26 29 30 28 28 28 27 27 25
Wind_Direction_850mb
336 336 336 335 334 334 334 335 334 335 336 337 336 334 334 333 326 320 326 325 322 323 321 316 309 305 303 300 295 292 289 288 288 294 287 291 294 297 299 304 299 292 285
336 336 335 334 336 336 336 335 337 336 338 339 337 337 338 333 333 330 332 335 324 325 325 322 315 307 301 298 296 293 293 288 287 291 294 292 292 292 299 303 293 288 282
336 334 335 336 337 335 336 334 335 336 338 340 339 339 338 333 332 332 334 323 328 329 326 317 314 312 303 298 294 290 289 288 284 283 286 286 291 294 304 303 286 281 269
335 335 336 337 335 334 334 331 333 334 337 341 340 340 337 336 330 329 324 328 327 324 323 318 313 309 304 302 296 292 292 289 286 279 281 287 293 300 304 287 278 261 242
335 336 336 334 334 332 332 329 330 332 337 340 342 338 340 337 329 330 326 324 323 328 329 327 326 319 313 295 285 284 283 282 281 275 275 281 287 293 286 249 228 258 254
334 335 335 334 333 331 331 327 328 331 335 338 342 339 337 340 326 327 324 319 325 326 332 335 340 336 335 332 318 300 281 273 271 267 269 269 276 284 281 232 200 196 64
335 337 336 334 333 332 330 328 329 331 334 337 338 339 338 340 327 325 323 321 320 334 332 341 334 334 332 337 334 327 313 292 279 265 266 264 268 279 205 213 210 165 123
338 338 337 335 334 333 331 331 331 331 335 336 336 342 341 341 326 327 326 320 326 331 335 336 337 332 331 337 329 327 328 24 8 251 289 252 252 166 163 164 168 164 142
337 339 340 337 336 335 333 333 335 334 334 334 338 340 342 344 333 330 328 326 328 325 333 331 331 331 334 329 331 330 356 61 65 93 91 97 136 151 136 158 148 153 143
342 341 340 338 337 337 335 335 338 336 334 338 339 342 346 348 346 333 330 327 328 329 331 327 328 332 331 332 333 337 43 56 64 98 110 107 114 116 112 108 105 113 142
342 342 341 341 339 340 339 339 337 338 339 343 344 348 350 349 342 336 333 330 328 330 333 330 330 334 335 335 336 337 87 76 86 98 112 101 132 117 107 103 102 98 64
344 344 342 343 343 344 342 338 341 343 344 346 347 347 345 339 340 338 338 333 331 329 331 331 328 336 337 342 353 4 111 99 109 104 105 102 101 99 96 98 96 108 79
349 346 346 348 349 347 345 345 345 346 347 345 341 334 332 336 344 352 351 338 336 333 330 326 332 339 356 4 60 98 99 107 122 114 103 97 95 95 98 102 93 78 71
351 350 351 351 349 350 352 352 347 349 346 342 333 333 334 335 348 350 343 340 348 340 328 328 336 348 23 33 76 102 110 117 116 109 104 97 91 94 99 94 96 98 90
352 352 354 352 351 352 357 354 350 347 340 332 332 333 332 336 342 337 340 341 341 341 318 332 353 16 38 51 55 83 103 109 106 103 97 88 79 70 74 76 77 81 92
354 352 352 352 353 356 353 352 2 355 344 338 336 334 334 333 336 340 339 339 341 337 340 351 6 17 26 36 47 57 77 88 92 92 87 77 64 53 48 43 40 46 56
355 353 352 353 356 356 356 353 351 4 7 5 354 345 341 336 340 342 342 335 342 337 342 358 359 5 13 20 29 39 48 59 72 76 65 54 43 32 29 34 36 34 42
358 355 356 356 357 357 355 354 356 353 355 4 9 3 356 348 345 342 343 338 345 350 347 347 350 349 350 355 2 11 27 36 40 39 36 15 0 4 15 17 15 19 22
0 358 358 0 0 359 358 358 357 356 357 357 359 2 358 2 353 348 354 355 352 350 343 338 332 327 324 323 322 324 327 318 316 327 329 323 317 316 321 332 331 327 323
3 2 2 1 2 2 0 359 358 358 357 357 358 356 359 354 349 359 1 358 356 351 343 333 323 309 298 292 279 270 266 269 270 268 267 270 273 276 280 283 286 288 290
3 5 3 5 5 3 1 1 359 359 359 359 0 3 349 344 355 357 356 356 353 351 345 338 325 303 283 272 267 262 256 253 257 259 259 263 266 269 274 278 284 287 283
5 4 5 6 5 4 5 3 4 4 3 2 4 7 5 1 358 356 356 356 354 350 345 339 333 310 284 268 263 260 256 252 254 258 258 260 262 266 271 274 277 281 285
4 5 7 8 6 6 8 7 8 7 5 6 5 5 4 3 2 2 1 0 359 356 350 345 338 326 295 279 268 264 260 256 255 259 262 264 266 269 271 272 273 274 274
6 7 8 8 8 8 9 8 9 9 8 8 8 8 8 8 8 8 7 6 5 2 356 351 346 337 322 300 283 274 269 263 257 258 261 264 265 266 268 271 273 275 275
8 8 10 9 8 8 8 8 10 10 10 11 10 10 10 11 11 11 10 9 9 8 5 356 350 347 336 320 307 290 277 271 266 261 261 265 266 265 265 268 269 269 268
7 8 11 10 10 9 8 8 11 11 11 12 12 12 12 13 13 13 12 10 9 7 4 0 355 344 338 336 323 308 297 286 279 273 267 264 266 267 266 268 269 270 269